Location: Del Amo
(33.8464°N, 118.2104°W)
Time: 07:11:31
(UTC+00:00)

Vanguard 3 - Pass Details

Date: 16 September 2024
Orbit: 507 x 3223 km, 33.3° (Epoch: 09 October)

Event Time Altitude Azimuth Distance (km) Brightness Sun altitude
Rises 12:48:45 0° 224° (SW) 6,089 11.1 -10.8°
Reaches altitude 10° 12:52:28 10° 219° (SW) 5,365 10.9 -10.1°
Maximum altitude 13:09:11 55° 148° (SSE) 3,628 10.6 -6.6°
Drops below altitude 10° 13:27:31 10° 78° (ENE) 5,848 13.5 -2.9°
Sets 13:31:45 0° 74° (ENE) 6,649 14.0 -2.0°
